Вернуться в каталог

STARLINK-34391

АктивенСвязьVLEO
NORAD 64298·PAYLOAD·🇺🇸 United States

Запущен Jun 8, 2025 с Vandenberg Space Force Base

Loading…

Ближайшие Пролёты (ближайшие 24 часа)

TLE

СвежийSource: CelesTrak SupGP

Эпоха: Sep 14, 2026, 23:07 UTC

1 64298C 25123H   26257.96368056  .00017894  00000+0  62249-3 0  2578
2 64298  70.0001  75.4858 0003822 272.8288  90.0995 15.29566615    17

Отслеживайте STARLINK-34391 в реальном времени с AllMySat

Download on the App Store